User: anonymous   Login
Location: Vancouver
(49.2500°N, 123.1330°W)
Time: 04:36:11
(UTC-08:00)
Language:

Oscar 11 - Orbit

View from above orbital plane
View from above orbital plane
View from above satellite
View from above satellite

Ground track
Ground track

The orbit data is extracted from the following two-line orbital elements,

1 14781U 84021B   16345.09359968  .00000151  00000-0  24932-4 0  9995
2 14781  97.7261  31.4838 0009997  98.3589 261.8758 14.82836519762322
Epoch (UTC): 10 December 2016 02:14:47
Eccentricity: 0.0009997
inclination: 97.7261°
perigee height: 613 km
apogee height: 627 km
right ascension of ascending node: 31.4838°
argument of perigee: 98.3589°
revolutions per day: 14.82836519
mean anomaly at epoch: 261.8758°
orbit number at epoch: 76232

The dashed part of the orbit path shows where the satellite is in the earth's shadow,  

DLR